• In Hungary
  • List of Countries
  • For 7 days
  • Water Temperature
  • Satellite Maps
  • Weather Map
  • News
  • Weather Widgets
  • user-avatar
    Login

    Hourly Weather Baturino

    Today, 23 May, Wednesday

    Time Temperature Precipitation Wind Pressure Humidity
    00:00 +6°C° 0 mm 1 mps 743 mmHg 84%
    01:00 +6°C° 0 mm 1 mps 743 mmHg 84%
    02:00 +6°C° 0 mm 1 mps 743 mmHg 85%
    03:00 +6°C° 0 mm 1 mps 742 mmHg 85%
    04:00 +6°C° 0 mm 1 mps 742 mmHg 82%
    05:00 +6°C° 0 mm 1 mps 742 mmHg 80%
    06:00 +6°C° 0 mm 1 mps 742 mmHg 77%
    07:00 +7°C° 0 mm 1 mps 742 mmHg 70%
    08:00 +7°C° 0 mm 2 mps 742 mmHg 62%
    09:00 +8°C° 0 mm 2 mps 742 mmHg 54%
    10:00 +9°C° 0 mm 2 mps 742 mmHg 53%
    11:00 +9°C° 0 mm 3 mps 742 mmHg 52%
    12:00 +9°C° 0 mm 3 mps 742 mmHg 50%
    13:00 +10°C° 0 mm 3 mps 742 mmHg 49%
    14:00 +10°C° 0 mm 3 mps 743 mmHg 48%
    15:00 +11°C° 0 mm 3 mps 743 mmHg 47%
    16:00 +11°C° 0 mm 3 mps 743 mmHg 48%
    17:00 +11°C° 0 mm 3 mps 744 mmHg 49%
    18:00 +11°C° 0 mm 4 mps 744 mmHg 51%
    19:00 +8°C° 0.1 mm 4 mps 745 mmHg 60%
    20:00 +7°C° 0.1 mm 5 mps 746 mmHg 69%
    21:00 +5°C° 0.1 mm 5 mps 746 mmHg 78%
    22:00 +5°C° 0.2 mm 5 mps 747 mmHg 79%
    23:00 +4°C° 0.2 mm 4 mps 748 mmHg 79%

    Tomorrow, 24 May, Thursday

    Time Temperature Precipitation Wind Pressure Humidity
    00:00 +3°C° 0.2 mm 4 mps 748 mmHg 80%
    01:00 +3°C° 0.1 mm 4 mps 749 mmHg 80%
    02:00 +1°C° 0.1 mm 4 mps 749 mmHg 81%
    03:00 0°C° 0.1 mm 4 mps 750 mmHg 81%
    04:00 0°C° 0 mm 4 mps 750 mmHg 79%
    05:00 0°C° 0 mm 4 mps 751 mmHg 77%
    06:00 0°C° 0 mm 4 mps 751 mmHg 76%
    07:00 +1°C° 0 mm 4 mps 752 mmHg 69%
    08:00 +3°C° 0 mm 4 mps 752 mmHg 63%
    09:00 +4°C° 0 mm 4 mps 752 mmHg 57%
    10:00 +4°C° 0 mm 4 mps 752 mmHg 54%
    11:00 +5°C° 0 mm 4 mps 753 mmHg 52%
    12:00 +5°C° 0 mm 4 mps 753 mmHg 49%
    13:00 +6°C° 0 mm 4 mps 753 mmHg 46%
    14:00 +8°C° 0 mm 3 mps 753 mmHg 42%
    15:00 +9°C° 0 mm 3 mps 753 mmHg 39%
    16:00 +10°C° 0 mm 3 mps 753 mmHg 39%
    17:00 +10°C° 0 mm 3 mps 753 mmHg 39%
    18:00 +10°C° 0 mm 3 mps 752 mmHg 39%
    19:00 +9°C° 0 mm 3 mps 752 mmHg 45%
    20:00 +8°C° 0 mm 3 mps 752 mmHg 52%
    21:00 +7°C° 0 mm 3 mps 752 mmHg 58%
    22:00 +7°C° 0 mm 3 mps 752 mmHg 65%
    23:00 +5°C° 0 mm 4 mps 751 mmHg 71%

    Day after tomorrow, 25 May, Friday

    Time Temperature Precipitation Wind Pressure Humidity
    00:00 +5°C° 0 mm 4 mps 751 mmHg 77%
    01:00 +5°C° 0.5 mm 4 mps 750 mmHg 81%
    02:00 +5°C° 0.5 mm 5 mps 749 mmHg 85%
    03:00 +5°C° 0.5 mm 5 mps 749 mmHg 89%
    04:00 +5°C° 0.6 mm 5 mps 748 mmHg 90%
    05:00 +5°C° 0.6 mm 5 mps 748 mmHg 91%
    06:00 +5°C° 0.6 mm 5 mps 747 mmHg 91%
    07:00 +6°C° 0.2 mm 5 mps 747 mmHg 91%
    08:00 +7°C° 0.2 mm 5 mps 747 mmHg 90%
    09:00 +7°C° 0.2 mm 5 mps 747 mmHg 90%
    10:00 +8°C° 0.8 mm 4 mps 747 mmHg 91%
    11:00 +8°C° 0.8 mm 4 mps 747 mmHg 92%
    12:00 +8°C° 0.8 mm 4 mps 747 mmHg 93%
    13:00 +10°C° 0.3 mm 3 mps 747 mmHg 93%
    14:00 +10°C° 0.3 mm 3 mps 747 mmHg 94%
    15:00 +11°C° 0.3 mm 3 mps 748 mmHg 94%
    16:00 +12°C° 0.1 mm 2 mps 748 mmHg 93%
    17:00 +12°C° 0.1 mm 2 mps 748 mmHg 91%
    18:00 +13°C° 0.1 mm 2 mps 749 mmHg 90%
    19:00 +12°C° 0 mm 2 mps 749 mmHg 92%
    20:00 +11°C° 0 mm 1 mps 749 mmHg 94%
    21:00 +10°C° 0 mm 1 mps 749 mmHg 96%
    22:00 +9°C° 0.5 mm 1 mps 749 mmHg 97%
    23:00 +9°C° 0.5 mm 1 mps 749 mmHg 97%

    26 May, Saturday

    Time Temperature Precipitation Wind Pressure Humidity
    00:00 +9°C° 0.5 mm 1 mps 748 mmHg 97%
    01:00 +8°C° 1 mm 1 mps 748 mmHg 97%
    02:00 +8°C° 1 mm 1 mps 748 mmHg 97%
    03:00 +7°C° 1 mm 2 mps 748 mmHg 97%
    04:00 +7°C° 0.1 mm 2 mps 748 mmHg 96%
    05:00 +7°C° 0.1 mm 2 mps 748 mmHg 94%
    06:00 +7°C° 0.1 mm 2 mps 749 mmHg 92%
    07:00 +8°C° 0 mm 2 mps 749 mmHg 85%
    08:00 +9°C° 0 mm 2 mps 750 mmHg 79%
    09:00 +10°C° 0 mm 2 mps 750 mmHg 72%
    10:00 +12°C° 0 mm 2 mps 750 mmHg 62%
    11:00 +13°C° 0 mm 2 mps 751 mmHg 51%
    12:00 +15°C° 0 mm 2 mps 751 mmHg 41%
    13:00 +14°C° 0.1 mm 2 mps 750 mmHg 46%
    14:00 +14°C° 0.1 mm 2 mps 750 mmHg 50%
    15:00 +13°C° 0.1 mm 2 mps 750 mmHg 55%
    16:00 +12°C° 1.4 mm 2 mps 750 mmHg 66%
    17:00 +9°C° 1.4 mm 2 mps 749 mmHg 78%
    18:00 +8°C° 1.4 mm 3 mps 749 mmHg 89%
    19:00 +8°C° 0.2 mm 3 mps 748 mmHg 90%
    20:00 +8°C° 0.2 mm 3 mps 748 mmHg 90%
    21:00 +7°C° 0.2 mm 3 mps 747 mmHg 91%
    22:00 +7°C° 0.2 mm 3 mps 747 mmHg 93%
    23:00 +8°C° 0.2 mm 2 mps 746 mmHg 95%

    27 May, Sunday

    Time Temperature Precipitation Wind Pressure Humidity
    00:00 +8°C° 0.2 mm 2 mps 746 mmHg 97%
    01:00 +8°C° 0.3 mm 2 mps 745 mmHg 97%
    02:00 +10°C° 0.3 mm 1 mps 745 mmHg 97%
    03:00 +10°C° 0.3 mm 1 mps 745 mmHg 97%
    04:00 +9°C° 0.1 mm 2 mps 745 mmHg 96%
    05:00 +9°C° 0.1 mm 2 mps 745 mmHg 96%
    06:00 +10°C° 0.1 mm 3 mps 745 mmHg 95%
    07:00 +10°C° 0 mm 3 mps 746 mmHg 92%
    08:00 +10°C° 0 mm 3 mps 746 mmHg 90%
    09:00 +10°C° 0 mm 3 mps 747 mmHg 88%
    10:00 +11°C° 0 mm 3 mps 747 mmHg 81%
    11:00 +12°C° 0 mm 3 mps 747 mmHg 75%
    12:00 +13°C° 0 mm 3 mps 748 mmHg 69%
    13:00 +14°C° 0 mm 3 mps 748 mmHg 66%
    14:00 +14°C° 0 mm 4 mps 748 mmHg 62%
    15:00 +15°C° 0 mm 4 mps 748 mmHg 58%
    16:00 +15°C° 0 mm 4 mps 748 mmHg 59%
    17:00 +15°C° 0 mm 4 mps 748 mmHg 61%
    18:00 +14°C° 0 mm 4 mps 748 mmHg 62%
    19:00 +13°C° 0 mm 4 mps 748 mmHg 66%
    20:00 +12°C° 0 mm 4 mps 748 mmHg 70%
    21:00 +10°C° 0 mm 4 mps 748 mmHg 75%
    22:00 +10°C° 0 mm 4 mps 747 mmHg 76%
    23:00 +9°C° 0 mm 5 mps 747 mmHg 78%

    28 May, Monday

    Time Temperature Precipitation Wind Pressure Humidity
    00:00 +9°C° 0 mm 5 mps 746 mmHg 79%
    01:00 +9°C° 0 mm 5 mps 745 mmHg 83%
    02:00 +9°C° 0 mm 5 mps 745 mmHg 87%
    03:00 +9°C° 0 mm 5 mps 744 mmHg 90%
    04:00 +10°C° 0 mm 5 mps 743 mmHg 87%
    05:00 +12°C° 0 mm 5 mps 742 mmHg 84%
    06:00 +13°C° 0 mm 5 mps 742 mmHg 82%
    07:00 +16°C° 0 mm 5 mps 741 mmHg 71%
    08:00 +20°C° 0 mm 5 mps 740 mmHg 61%
    09:00 +25°C° 0 mm 5 mps 739 mmHg 51%
    10:00 +26°C° 0 mm 6 mps 739 mmHg 46%
    11:00 +28°C° 0 mm 6 mps 739 mmHg 41%
    12:00 +30°C° 0 mm 7 mps 738 mmHg 37%
    13:00 +29°C° 0 mm 7 mps 739 mmHg 39%
    14:00 +29°C° 0 mm 7 mps 739 mmHg 41%
    15:00 +28°C° 0 mm 7 mps 739 mmHg 44%
    16:00 +26°C° 0 mm 7 mps 740 mmHg 46%
    17:00 +22°C° 0 mm 8 mps 741 mmHg 49%
    18:00 +20°C° 0 mm 8 mps 742 mmHg 51%
    19:00 +17°C° 0 mm 8 mps 743 mmHg 54%
    20:00 +13°C° 0 mm 8 mps 745 mmHg 56%
    21:00 +11°C° 0 mm 8 mps 746 mmHg 58%
    22:00 +10°C° 0 mm 7 mps 746 mmHg 59%
    23:00 +10°C° 0 mm 7 mps 747 mmHg 60%
    Show more